Wind_Speed
16 15 13 13 14 14 12 12 13 14 15 14 14 14 15 16 16 16 17 19 22 25 26 27 30 29 27 27 25 25 27 28 29 27 24 23 22 21 20 19 20 21 21 20 20 20 18 18 18 18 18 19 19 18 18 19 20 20 19 20 20 20 21 22 21 18 19 23 22 18 19 20 18 17 18 18 19 19 17 17 20 19 17 18 18
17 17 16 15 15 15 15 15 14 15 15 15 15 16 17 17 17 17 19 20 22 26 28 29 29 27 26 25 22 22 25 27 27 27 25 23 22 21 19 18 19 19 20 19 19 18 18 18 18 19 19 19 18 18 19 20 21 21 23 24 21 20 20 21 21 20 20 22 21 19 19 20 18 17 18 18 19 20 19 17 19 19 17 18 18
17 17 18 18 16 16 17 17 16 16 16 16 17 18 19 19 18 18 20 21 23 28 30 29 27 25 23 21 19 20 22 25 26 25 24 23 21 20 19 19 19 19 19 19 19 19 19 19 19 20 20 19 19 19 20 20 19 20 23 24 22 21 22 22 21 20 21 22 21 21 20 21 19 17 18 18 17 20 20 16 16 17 16 16 17
18 18 19 19 19 17 17 17 17 16 16 16 17 18 19 20 20 19 19 20 23 28 29 29 28 26 22 19 19 20 20 22 24 23 23 23 23 22 20 20 19 18 18 19 19 18 19 19 20 20 20 20 21 21 19 19 19 19 20 21 21 22 23 22 21 21 22 22 22 20 20 22 19 17 19 18 15 18 19 17 15 16 16 16 15
18 18 19 20 20 19 18 18 18 17 16 16 17 18 18 19 19 19 18 19 22 27 29 31 30 23 18 17 17 17 18 20 22 23 24 24 25 23 20 19 19 18 18 18 18 18 18 19 19 19 20 21 21 21 20 20 21 20 20 21 22 23 23 21 22 24 23 22 22 19 18 21 19 17 19 19 16 17 18 17 17 16 16 16 15
18 18 19 19 20 21 19 18 19 19 18 17 17 18 18 18 18 18 18 18 21 25 28 28 24 16 12 13 14 15 16 19 21 22 23 24 25 23 21 19 19 18 18 18 18 18 19 20 19 19 20 20 20 20 19 20 21 19 19 20 20 22 23 21 23 26 24 21 20 17 16 18 18 18 19 19 17 17 18 17 17 17 17 17 16
18 19 19 19 20 21 21 20 20 20 19 18 18 18 17 17 16 16 16 17 19 21 23 22 15 11 10 11 13 15 15 17 19 21 22 23 22 22 20 18 17 17 18 17 17 18 19 19 19 19 19 19 20 19 18 18 20 19 18 19 19 21 22 19 21 25 24 21 19 17 18 19 18 18 18 18 18 17 18 18 18 17 18 18 17
18 19 20 20 21 22 22 21 21 21 20 19 19 18 17 16 15 14 14 16 18 19 20 17 10 5 7 9 11 13 14 16 18 20 20 20 21 21 20 17 16 16 17 18 17 18 19 19 18 17 18 19 19 19 17 17 18 18 16 16 17 19 20 19 21 23 24 21 18 18 18 18 18 18 18 19 19 18 18 19 18 18 18 19 18
19 20 20 21 21 22 22 22 22 23 22 20 19 18 17 16 15 13 13 14 17 19 18 15 11 7 5 7 8 10 13 15 17 18 19 19 20 20 19 17 16 17 17 18 18 18 18 17 16 17 17 18 18 19 19 18 19 19 18 17 18 18 18 20 21 23 24 22 19 18 19 18 18 19 19 20 20 19 18 18 18 18 18 18 19
19 20 21 21 22 22 22 22 23 23 23 22 20 19 18 17 16 14 13 13 14 16 16 12 8 6 6 7 8 9 11 13 15 17 17 18 19 20 18 17 17 17 18 18 18 18 17 16 16 18 19 18 18 19 20 20 21 22 22 21 21 20 20 21 20 21 24 25 22 20 20 20 20 20 19 19 19 18 17 18 18 17 18 19 19
20 20 21 22 22 22 22 22 22 23 23 23 22 20 19 18 17 16 15 13 13 14 14 12 6 3 3 5 5 7 10 11 13 16 16 17 19 20 18 17 16 15 17 19 18 18 18 17 17 19 19 19 18 19 20 20 21 22 21 21 19 19 21 22 21 21 24 28 27 22 20 21 21 20 20 18 18 19 18 18 18 17 18 19 18
20 20 21 21 22 22 22 22 22 23 23 23 22 21 20 19 18 17 17 15 14 13 14 14 10 4 1 2 3 5 8 10 11 14 16 17 18 19 19 18 16 15 17 19 18 17 17 17 18 19 19 18 18 19 20 20 21 21 21 21 20 20 21 22 21 20 22 28 29 24 20 21 22 23 22 19 18 19 19 18 18 18 18 18 17
20 20 21 22 22 23 23 22 23 23 23 23 22 22 21 20 19 20 20 20 17 15 14 14 13 9 4 1 4 8 9 9 11 14 17 18 19 19 20 20 17 16 17 18 17 16 16 16 18 18 17 17 18 18 19 20 21 22 21 22 22 21 20 20 21 21 20 22 26 25 21 20 23 25 23 21 20 21 22 20 19 19 19 18 17
20 21 21 22 22 23 23 23 23 23 23 23 23 23 22 21 20 19 20 22 22 20 17 15 15 14 10 5 4 7 9 10 13 17 20 20 20 19 20 20 20 19 18 17 17 16 16 16 16 16 16 16 16 15 16 19 20 21 21 20 20 20 19 20 22 22 21 20 23 26 25 22 23 25 25 24 24 24 23 22 21 20 18 18 18
20 20 21 22 23 23 23 23 23 22 22 22 23 23 23 22 21 19 18 20 22 24 24 22 18 16 14 11 8 8 10 12 14 16 19 20 20 19 19 20 21 21 19 18 17 17 16 15 14 15 15 15 15 15 16 16 17 18 19 17 16 18 20 22 23 22 22 23 23 25 26 26 26 28 29 29 28 27 24 22 22 22 20 19 19
19 20 21 22 22 22 22 23 23 23 23 22 23 23 23 22 22 20 19 19 19 21 25 27 26 23 19 15 12 10 10 12 13 14 16 19 19 19 19 20 21 21 21 19 18 18 17 16 15 16 16 15 15 15 16 16 15 15 15 15 17 20 21 21 22 22 22 23 23 22 22 25 28 29 30 30 30 30 27 23 21 21 22 22 20
19 19 20 21 21 21 21 21 22 23 23 23 23 23 22 22 22 22 21 21 20 19 20 22 26 29 26 22 18 15 12 12 14 14 14 17 19 20 20 21 21 21 20 19 18 17 17 17 16 17 16 14 14 15 15 16 14 11 13 16 20 22 20 19 20 22 22 22 22 21 21 25 28 28 28 31 31 31 31 27 21 19 22 25 21
18 18 19 20 20 20 20 20 21 22 23 24 24 24 23 23 23 22 22 22 21 20 19 18 20 25 28 27 25 22 19 15 13 14 14 16 18 19 21 22 23 22 20 19 16 15 16 16 16 16 15 14 15 14 14 16 14 12 13 15 16 17 17 16 17 18 20 20 19 19 20 24 27 26 27 30 31 31 33 30 24 19 20 24 22
18 18 18 19 19 20 20 20 21 21 22 23 23 24 24 24 24 23 23 22 22 21 20 19 18 20 23 26 26 26 25 23 19 15 13 15 17 19 20 21 23 23 20 16 13 14 17 17 17 18 17 16 16 15 15 15 16 15 14 12 11 12 13 14 15 15 17 18 17 18 20 21 24 25 26 28 30 31 29 27 25 23 21 22 22
17 17 17 18 19 20 20 20 21 21 22 23 23 23 23 23 24 24 23 23 23 22 22 21 19 19 21 23 25 26 26 26 25 23 18 13 14 16 18 19 20 21 18 15 14 16 19 18 18 18 18 18 17 17 16 16 17 15 12 11 12 14 13 13 14 15 15 16 17 18 19 20 21 22 21 21 24 26 23 22 25 26 22 21 22
16 16 17 17 18 19 20 20 20 20 21 22 23 23 23 23 23 23 23 23 24 24 23 22 22 21 20 21 23 25 26 26 26 26 24 20 14 12 14 15 17 18 17 17 19 20 21 20 20 20 20 20 20 19 17 18 18 14 11 12 14 14 12 13 13 13 13 13 14 14 15 16 17 18 18 18 20 22 20 20 24 26 23 21 23
16 16 17 17 17 18 19 19 20 20 21 22 22 23 24 23 23 22 22 22 23 24 24 23 22 23 22 21 22 24 25 25 25 25 25 24 21 16 13 11 12 15 17 17 18 20 21 21 20 21 22 23 23 21 19 20 20 16 14 15 14 11 11 12 12 13 13 13 14 14 15 16 16 17 18 20 21 21 21 21 23 24 22 20 19
16 16 16 17 17 17 17 18 19 20 21 21 22 23 23 24 24 24 23 23 23 23 24 23 23 23 23 23 24 25 24 23 24 24 24 24 23 21 17 14 10 10 13 15 17 18 19 20 20 19 21 23 22 21 21 22 22 20 19 17 13 10 11 13 14 15 14 14 13 13 14 15 16 18 19 20 20 20 20 21 21 21 20 18 18
15 16 16 17 17 17 17 17 18 19 20 21 22 22 23 24 24 25 24 23 23 23 23 23 23 23 22 22 23 25 24 22 22 22 23 23 22 22 20 17 14 10 8 9 12 13 14 15 17 17 18 21 21 19 20 23 24 23 21 19 15 14 13 14 15 15 16 16 16 17 17 17 17 18 18 17 17 17 17 17 17 15 15 15 15
15 15 16 16 16 17 16 16 17 17 18 21 22 22 23 23 24 26 26 25 24 23 23 23 22 22 22 21 22 22 23 23 21 21 21 21 20 20 19 17 14 12 9 5 3 4 5 8 12 14 15 16 18 18 17 18 20 21 20 21 22 23 21 19 19 20 21 21 21 21 20 19 17 16 15 14 13 13 12 11 10 9 9 9 9
15 15 16 16 16 17 16 16 16 16 16 18 21 22 22 21 22 24 26 25 24 23 24 23 22 21 20 20 21 21 21 22 22 20 19 19 19 17 16 15 14 12 11 10 8 5 2 3 6 9 10 11 15 18 18 17 17 17 18 20 23 25 25 25 25 24 23 22 21 19 18 16 15 14 14 13 12 11 10 9 9 9 8 8 8
14 15 16 16 16 16 17 16 16 16 15 16 19 21 22 20 20 22 26 26 25 24 23 24 23 20 18 18 20 22 22 22 21 20 19 18 17 15 14 14 14 13 13 11 10 8 7 6 7 7 7 9 13 17 19 19 18 17 17 19 20 20 21 21 22 22 22 20 18 17 16 15 15 14 14 13 13 13 12 11 10 9 9 8 9
14 14 15 15 15 16 17 16 16 16 15 15 18 20 20 20 19 22 26 28 26 25 24 25 24 21 17 16 18 22 23 23 23 22 21 19 17 15 13 12 11 12 14 13 11 11 10 10 10 10 11 12 14 15 16 17 17 17 18 18 17 17 16 15 15 15 16 15 14 14 14 13 13 13 12 12 12 11 11 10 10 10 9 7 7
13 13 14 14 15 16 16 16 16 17 15 16 19 22 21 20 20 21 24 27 27 26 26 27 27 23 18 17 19 21 23 23 22 21 19 18 18 18 16 14 11 10 9 8 7 6 7 8 9 10 12 13 13 14 14 14 15 15 16 16 16 16 16 16 15 14 13 13 13 13 13 12 11 10 9 9 9 9 9 11 11 11 10 8 8
12 13 13 14 14 15 15 15 16 17 16 16 18 20 20 22 23 23 23 25 27 26 26 27 27 23 19 18 20 21 21 20 20 19 17 16 17 18 18 17 15 13 11 8 4 2 2 4 6 8 8 8 9 9 9 9 9 10 10 11 11 11 12 13 14 15 14 13 12 12 11 10 9 8 9 10 9 8 9 11 12 12 11 10 10
12 12 12 13 13 13 14 15 15 16 17 17 17 17 18 20 23 24 24 25 26 25 25 25 26 25 23 20 19 18 17 17 17 17 15 13 14 15 16 16 16 17 16 12 8 7 7 7 7 7 6 5 5 5 4 4 4 5 5 6 7 7 8 10 12 13 13 12 12 12 11 10 9 9 9 9 8 7 7 7 8 9 10 10 10
12 13 12 11 12 12 13 13 14 16 16 16 17 17 17 18 21 23 24 24 25 24 23 24 25 27 27 23 19 17 16 15 15 14 12 11 11 12 12 13 15 16 17 16 15 14 13 12 11 10 9 8 8 7 7 6 6 6 7 7 8 9 9 10 11 11 11 11 11 10 10 9 8 8 8 8 8 6 5 5 6 7 8 9 9
10 11 11 10 11 12 12 12 13 15 15 15 16 17 18 18 19 20 21 23 24 24 23 23 25 28 29 27 24 20 17 14 14 14 12 12 12 10 10 11 12 14 15 16 17 17 15 14 13 13 12 12 12 11 11 11 11 11 11 12 12 13 13 13 13 13 12 12 11 11 11 10 9 8 8 8 7 7 7 7 7 7 7 8 9
8 11 13 11 10 11 12 11 12 14 14 14 15 17 17 18 18 18 18 20 21 22 22 22 24 27 29 29 28 24 17 13 13 13 13 13 12 10 9 10 11 12 13 13 14 15 14 14 14 13 12 12 12 11 12 12 12 12 12 13 13 13 13 13 13 13 13 12 12 11 11 11 10 9 8 8 8 8 9 9 9 9 9 9 8
9 11 13 13 11 11 12 11 11 12 12 13 14 16 16 17 18 17 18 18 18 18 19 19 21 24 26 28 29 23 15 11 12 13 12 12 11 9 9 10 10 10 11 11 12 12 12 11 11 11 11 10 9 9 9 10 10 10 10 11 11 11 11 11 11 11 11 11 11 10 10 10 11 11 10 10 10 9 10 10 10 9 8 8 7
9 9 11 12 12 11 11 11 11 11 11 13 14 14 15 16 17 17 17 17 17 17 17 17 19 20 22 26 28 22 14 10 11 11 11 12 11 9 8 8 9 9 9 9 10 11 10 9 8 8 8 8 8 7 8 8 9 10 10 10 11 11 11 11 10 10 10 10 10 11 11 11 10 9 9 10 10 10 9 9 9 9 9 8 7
9 9 11 13 13 11 10 10 10 11 12 13 13 12 13 15 16 16 17 17 17 17 17 18 18 18 21 25 26 23 17 12 8 8 9 10 11 10 8 7 7 7 8 9 9 9 9 8 7 6 6 6 6 6 7 8 8 9 9 9 10 10 11 11 11 11 10 10 10 11 12 13 12 10 9 9 9 8 7 7 7 9 10 10 8
9 11 13 14 12 11 11 11 11 11 12 11 11 12 13 14 15 15 15 16 17 17 17 18 18 17 20 24 25 23 20 15 10 9 8 8 9 10 9 7 6 7 7 8 9 9 8 7 6 6 6 6 6 6 7 7 6 7 8 9 11 11 11 11 12 11 10 10 10 10 10 10 9 8 8 8 8 7 7 6 6 7 7 7 7
10 13 15 14 12 10 11 11 11 11 11 11 11 13 13 13 14 14 14 15 16 16 16 18 17 15 18 24 25 22 19 17 15 14 11 8 8 10 9 6 6 7 7 8 9 9 7 6 5 5 6 6 6 6 7 7 6 7 9 11 11 11 10 10 9 9 9 8 8 8 8 8 8 7 7 7 7 7 7 7 6 5 5 5 6
8 10 12 12 11 11 11 11 11 11 11 12 12 12 12 12 12 13 14 14 15 15 15 16 16 14 17 23 25 21 17 15 15 15 13 9 7 7 7 6 5 5 6 7 9 8 6 5 5 5 5 6 6 6 6 6 6 7 8 8 7 7 7 7 7 7 7 8 8 8 8 7 7 7 7 7 7 6 6 5 5 5 5 5 5
8 8 9 10 11 11 11 11 12 12 12 12 12 12 12 12 11 11 12 13 14 14 14 14 14 15 18 22 23 19 16 14 13 13 13 11 9 7 5 4 5 5 5 6 7 7 5 5 5 5 5 6 6 6 6 6 6 6 6 6 6 6 6 6 6 7 7 7 7 7 6 6 6 6 6 6 6 5 5 4 4 4 4 4 4
8 8 8 9 10 12 11 11 12 11 11 11 11 11 11 11 10 10 11 11 12 14 14 13 13 15 18 20 19 17 15 13 12 12 12 12 11 10 7 5 4 5 5 4 5 5 5 5 5 5 5 5 5 5 6 5 5 5 5 5 5 5 5 5 6 7 6 5 5 6 6 6 6 6 6 6 5 4 5 5 5 4 4 4 4
8 8 9 9 9 10 10 11 11 11 10 11 11 10 10 10 10 10 10 10 11 12 13 12 11 12 15 18 17 15 13 12 12 12 11 10 11 13 11 7 3 3 4 4 4 4 4 4 4 4 4 5 5 5 5 5 4 4 4 4 4 4 4 4 5 6 4 4 5 7 7 5 4 4 4 5 5 5 5 5 5 4 3 3 4
8 8 9 9 9 9 9 10 11 10 10 11 12 10 10 10 10 10 10 10 10 11 11 10 10 10 12 13 13 12 11 11 11 11 12 11 9 10 12 10 7 5 4 5 4 4 3 3 3 4 4 4 4 4 4 5 5 3 2 2 3 3 3 3 4 4 3 3 5 6 6 5 4 4 4 4 4 4 4 4 5 5 4 3 2
7 8 9 9 9 9 9 10 10 10 10 11 12 11 10 10 9 10 10 10 10 10 10 9 9 9 10 10 10 9 10 10 9 9 10 10 9 8 8 7 6 5 5 5 5 4 4 3 3 3 3 3 3 2 3 5 7 6 4 3 2 2 3 4 3 4 5 5 4 3 2 2 3 2 2 3 4 3 3 4 4 4 4 3 2
7 8 8 9 9 9 9 9 10 10 11 11 12 11 11 11 10 10 10 10 10 10 9 9 9 9 9 9 8 8 9 9 9 8 7 8 8 8 7 7 7 6 4 4 3 2 3 3 3 2 2 2 2 3 3 2 3 4 4 2 2 3 4 4 3 4 7 7 6 5 3 1 2 2 1 3 3 3 2 2 3 3 3 3 3
7 8 8 8 9 9 9 9 9 10 11 12 12 12 11 11 11 10 10 10 10 10 9 9 9 9 9 8 7 7 8 8 8 8 6 6 6 6 7 9 10 9 6 4 3 1 1 1 2 1 1 1 1 2 3 2 2 2 1 1 2 4 5 3 3 4 6 8 7 7 6 3 3 3 1 2 1 2 2 1 2 3 3 2 2
7 7 8 8 8 8 8 8 10 11 11 12 12 12 12 12 11 10 10 10 10 10 10 10 10 9 9 8 8 8 8 7 8 8 7 7 6 5 5 8 10 8 7 8 7 5 2 1 1 1 1 1 2 2 1 2 2 2 2 4 5 5 6 5 4 3 5 7 6 5 4 2 1 2 2 3 3 2 3 0 2 1 2 1 1
6 7 8 8 8 8 9 9 10 11 11 11 12 12 12 12 12 11 10 10 10 9 10 10 10 9 9 9 9 9 9 7 7 7 7 8 7 5 5 7 9 7 6 9 12 11 8 5 3 2 2 1 2 2 1 1 2 2 5 8 9 8 7 6 5 4 3 3 3 2 1 2 4 3 3 5 5 4 4 2 1 2 2 1 1
6 7 7 7 8 9 9 10 11 11 11 11 12 12 11 12 12 12 11 11 10 10 9 10 10 9 9 9 9 9 8 7 7 7 7 7 8 6 5 8 10 9 6 5 7 9 9 8 7 6 4 3 3 3 1 2 5 7 9 10 8 6 6 5 3 2 2 3 3 1 2 5 6 4 2 4 5 2 3 4 3 3 2 2 1
6 7 7 7 9 9 10 10 11 11 11 12 12 12 12 12 12 12 11 11 11 10 10 10 10 9 9 9 9 9 7 6 6 7 6 6 7 7 6 6 7 8 6 4 4 5 5 6 6 5 4 5 6 4 2 5 8 9 9 9 7 5 5 4 3 1 1 2 3 2 1 5 7 6 3 2 2 1 2 5 7 4 2 2 1
Wind_Direction
9 3 357 354 350 342 332 324 318 314 314 312 309 308 305 297 291 288 288 290 290 287 283 274 269 266 261 257 247 237 233 228 227 230 230 230 229 225 222 221 224 227 227 228 229 230 228 222 224 231 230 229 225 219 218 220 223 223 220 222 221 212 207 210 210 205 203 201 192 188 190 183 186 194 188 200 211 194 183 202 210 207 205 206 203
11 5 359 357 355 350 342 331 321 317 317 316 313 310 306 301 298 292 288 290 291 289 286 280 276 272 267 262 250 240 234 227 226 230 229 229 228 225 224 223 226 230 228 226 226 227 224 220 224 229 228 226 224 219 219 221 224 225 224 223 221 217 211 210 209 205 205 204 193 185 188 184 188 195 189 199 213 196 184 204 216 209 208 210 207
11 6 2 1 359 355 350 341 329 320 317 317 315 311 309 308 305 301 298 297 295 294 290 283 277 272 269 264 253 248 242 229 227 230 229 228 227 224 223 222 225 229 227 225 223 222 224 222 221 223 224 223 221 219 220 223 225 228 228 225 222 221 217 214 214 210 206 203 193 187 188 186 189 196 193 199 211 200 189 197 210 206 204 207 209
10 6 4 4 1 358 355 350 341 330 322 318 315 312 311 311 309 306 306 306 302 299 295 287 279 270 261 258 256 256 248 234 230 231 228 228 228 226 224 222 224 226 225 225 225 223 225 223 219 219 220 221 221 221 221 221 223 226 226 222 219 219 216 214 214 210 205 201 197 196 190 185 190 197 194 194 199 197 192 193 199 199 198 199 203
9 6 4 4 2 0 357 355 353 345 334 324 317 314 312 313 312 305 305 310 307 303 301 295 287 273 254 253 261 259 248 239 236 233 233 235 233 228 223 219 218 220 221 223 226 225 224 224 221 218 218 221 224 224 221 219 220 224 224 221 220 218 213 210 209 207 206 202 201 204 195 185 191 195 191 191 191 190 192 195 196 195 197 198 198
9 7 6 4 4 2 359 358 356 352 344 334 327 322 318 318 314 303 301 309 309 309 310 301 288 272 255 256 263 261 254 248 243 239 240 242 237 228 221 217 215 217 219 221 225 226 225 225 222 217 218 221 225 227 224 219 220 224 226 224 222 218 213 206 199 199 201 196 196 205 200 189 192 195 192 193 192 189 190 194 196 196 197 198 196
11 10 7 6 6 4 1 0 358 354 350 343 334 327 323 322 317 307 304 308 310 313 317 312 293 265 260 266 262 261 263 254 244 242 247 250 246 236 225 218 216 218 220 220 222 226 227 227 225 221 220 219 222 228 227 221 220 223 226 226 221 219 216 203 188 189 193 188 185 196 200 191 191 196 197 195 194 192 191 192 195 197 198 199 196
13 12 10 9 8 5 2 1 360 357 353 348 341 332 329 326 320 313 308 308 310 312 318 328 334 298 270 273 265 265 270 259 247 247 252 256 256 247 234 223 217 220 224 223 223 226 228 227 227 227 225 220 220 224 223 221 220 219 222 225 221 219 219 206 188 187 191 186 182 191 199 193 189 194 196 194 194 195 194 194 196 197 197 200 200
15 14 12 10 9 7 4 3 2 359 357 354 350 343 338 333 325 318 312 309 312 314 316 328 349 352 307 286 281 283 283 270 257 252 251 253 256 251 241 232 226 227 230 229 226 227 228 227 225 226 227 226 222 219 218 218 217 214 213 218 219 215 211 206 199 195 194 189 185 192 198 195 192 194 195 195 195 196 196 196 198 200 200 202 205
17 16 14 12 10 8 7 5 3 2 1 359 355 352 348 343 335 327 323 318 313 315 318 322 341 352 325 312 315 312 299 278 260 251 248 253 260 260 256 247 235 230 233 233 229 225 224 222 223 224 226 228 226 222 221 221 220 218 215 216 218 215 210 210 210 208 202 194 191 194 195 194 195 197 197 196 196 197 197 197 199 202 203 205 208
18 16 15 13 11 10 9 7 5 4 4 1 359 357 356 355 350 342 336 333 322 315 317 321 336 3 317 312 317 304 292 277 258 247 242 249 257 261 265 260 245 234 236 238 234 229 226 223 226 229 229 231 231 228 226 225 224 223 219 216 217 219 219 218 217 215 209 202 200 198 194 196 199 198 198 198 197 198 200 201 201 203 205 208 209
18 17 15 13 12 12 10 8 7 5 4 3 2 1 0 2 4 0 354 349 340 329 323 323 329 340 309 256 231 242 258 261 251 241 243 248 249 252 259 261 254 247 244 243 238 234 233 232 233 235 233 229 229 228 227 227 226 224 220 219 221 225 227 226 222 220 216 209 206 203 198 202 205 199 197 199 200 203 205 206 207 208 209 211 213
18 17 15 13 13 12 11 9 8 6 5 4 3 3 3 5 9 11 10 7 0 351 342 336 333 331 328 265 223 226 233 242 243 240 244 246 244 246 252 255 254 249 245 245 242 237 236 236 237 239 235 229 228 227 225 225 226 225 223 223 226 228 227 224 221 221 221 215 210 208 207 211 211 206 202 203 207 211 211 210 211 212 213 215 217
19 17 15 13 13 12 10 9 8 6 5 5 5 5 5 5 6 9 12 13 13 10 3 355 346 340 337 326 276 247 240 242 244 243 243 241 239 243 249 252 252 249 245 247 246 239 236 238 238 236 234 233 232 226 224 226 226 225 225 227 228 228 224 221 218 219 219 216 213 213 214 214 214 213 210 208 210 211 211 213 214 213 215 219 220
18 17 16 14 12 11 10 9 8 7 5 6 7 6 6 6 5 5 6 9 14 18 17 14 6 357 349 342 325 289 261 249 245 243 243 242 242 244 247 252 254 252 249 250 251 245 236 233 236 235 234 235 233 223 220 225 225 222 221 222 224 224 221 219 218 218 216 215 217 218 217 215 215 215 214 215 215 213 211 212 215 215 216 219 218
19 17 16 14 12 11 10 9 8 8 6 6 6 6 6 6 5 5 6 6 8 14 19 21 19 15 8 358 346 323 287 264 253 246 240 239 243 246 248 251 251 252 254 254 258 258 245 233 237 238 229 226 233 230 219 218 226 223 210 206 214 222 223 220 218 219 218 221 228 229 221 218 219 217 216 217 219 219 216 211 211 214 216 216 213
19 17 15 14 12 10 10 9 9 9 8 8 8 6 6 5 5 5 6 6 6 7 11 16 20 21 19 14 6 352 329 297 276 264 249 241 241 242 246 248 247 251 259 260 263 266 253 240 241 240 226 220 236 243 227 218 224 219 199 202 216 224 226 222 219 222 224 226 233 233 225 222 223 222 220 219 220 222 220 214 206 204 209 214 211
20 17 16 14 12 11 10 10 10 10 9 9 9 8 8 7 6 6 5 5 6 6 5 6 11 17 20 20 17 11 3 346 315 290 270 256 249 242 243 246 245 247 258 264 265 263 250 240 241 242 234 230 239 246 235 221 213 203 199 208 224 229 226 221 220 225 228 229 231 229 223 223 224 225 226 227 225 223 221 219 214 207 209 214 209
18 16 15 14 13 13 12 12 12 12 10 10 9 9 8 8 8 8 8 7 6 5 6 5 4 9 14 17 17 15 13 9 358 337 302 276 264 253 248 248 248 249 255 260 259 251 241 236 238 239 236 233 233 238 234 216 203 204 207 208 222 233 230 224 225 228 229 229 229 226 222 222 223 224 227 230 229 227 227 225 218 210 209 211 202
17 15 14 14 14 14 14 14 15 15 13 12 11 10 8 8 8 9 9 10 9 7 8 8 6 5 7 11 14 14 12 10 8 3 349 319 288 271 263 257 251 249 248 242 239 240 238 234 234 235 232 227 228 234 230 208 196 202 207 205 221 233 230 220 218 219 220 222 222 220 219 218 220 222 223 223 224 224 228 227 215 206 203 198 187
16 16 15 15 15 14 15 15 16 16 15 14 13 13 11 9 8 9 8 8 9 9 9 10 10 8 6 7 9 11 11 8 5 5 3 356 338 311 292 275 258 247 239 232 234 241 244 242 238 235 230 225 228 235 227 202 192 197 201 205 217 222 214 208 205 200 199 202 201 202 204 205 207 210 208 206 205 204 206 210 207 205 207 205 193
16 16 17 16 15 15 15 15 16 15 15 15 14 14 14 12 11 10 9 8 8 9 10 10 10 11 11 11 10 10 11 10 7 5 5 5 3 356 342 319 283 259 249 243 241 245 252 256 251 240 230 225 229 234 221 197 189 191 197 202 205 202 198 196 185 172 167 169 174 179 184 187 189 190 191 191 190 189 189 192 194 197 205 212 212
17 17 18 17 16 16 14 14 16 16 15 15 15 14 14 14 14 12 11 10 8 8 9 10 9 10 11 13 14 14 13 12 11 10 9 9 10 10 7 360 338 296 272 262 255 250 253 260 261 251 234 226 224 222 211 197 188 187 195 203 199 185 181 174 161 152 150 149 153 160 167 174 179 181 182 184 184 185 186 188 191 193 196 205 216
18 18 18 17 16 15 15 14 15 17 17 17 17 16 15 14 15 14 13 12 11 8 7 8 9 9 10 10 12 16 19 19 17 17 16 14 14 15 15 13 9 356 325 285 262 250 243 247 254 252 237 227 220 210 200 193 188 187 192 192 175 155 152 154 151 149 148 147 151 157 163 172 181 185 185 185 185 188 191 191 194 196 198 206 218
19 19 18 18 16 15 15 14 13 16 18 19 18 16 14 14 14 14 14 13 13 10 8 7 7 7 9 9 9 12 19 23 25 27 26 22 20 20 21 23 24 21 16 1 302 263 230 223 234 238 231 222 213 204 195 189 188 188 188 183 171 160 156 158 163 164 164 165 170 175 178 180 184 185 183 182 182 182 183 182 180 179 182 192 205
21 21 19 18 17 16 16 15 14 13 14 17 17 15 13 12 12 13 13 13 12 11 9 7 6 4 6 9 9 8 11 16 21 26 30 30 28 27 27 31 35 37 38 45 47 39 55 170 201 215 215 205 197 196 194 192 193 192 187 183 181 178 177 178 179 180 180 179 178 176 173 170 170 171 173 175 173 163 154 152 152 155 162 175 186
23 22 21 19 18 18 18 16 15 13 11 12 13 13 14 12 7 8 11 12 12 12 10 9 7 4 3 6 9 10 8 7 9 14 18 20 22 25 32 40 48 54 56 59 67 74 85 104 123 146 164 171 177 182 184 187 190 191 187 184 184 184 184 184 183 180 178 175 172 168 164 163 164 165 164 163 161 154 148 146 147 151 161 174 180
25 23 22 21 20 19 18 17 15 13 10 8 8 10 14 15 9 5 8 10 11 11 11 10 8 6 3 0 2 7 9 8 9 10 12 13 13 15 21 29 42 57 62 67 77 89 98 104 107 114 128 139 145 150 157 163 167 170 172 172 169 167 168 169 170 168 165 163 161 158 155 154 153 152 152 155 156 155 155 158 161 162 163 161 153
27 25 23 23 22 19 18 17 15 14 11 6 3 4 9 14 13 7 5 8 9 9 8 8 7 8 8 3 358 359 2 4 7 11 15 21 25 26 27 26 26 36 48 57 70 87 100 109 112 117 126 130 129 128 130 135 140 145 151 152 150 149 149 149 148 143 137 137 138 139 142 143 142 142 146 149 150 155 159 158 152 145 135 121 109
28 26 23 21 21 19 18 17 14 14 13 8 3 2 3 6 7 5 4 5 6 6 6 7 5 5 8 7 2 359 356 354 357 3 10 19 27 32 37 38 36 35 30 18 360 4 48 86 103 112 123 131 133 131 132 134 136 140 146 150 152 154 155 155 152 145 138 133 129 128 127 127 127 134 141 140 140 146 153 152 148 141 136 133 135
28 24 20 19 18 15 14 14 12 11 10 8 6 5 2 359 359 0 1 2 2 2 3 5 2 360 360 359 356 354 351 346 347 354 4 15 21 27 36 42 43 43 38 30 28 40 47 52 61 67 73 86 101 109 115 129 146 157 165 172 175 177 178 177 174 169 162 156 147 137 127 120 117 118 119 120 121 127 137 150 158 156 153 154 155
28 22 16 13 13 10 8 8 9 7 6 6 5 5 3 359 355 356 357 359 359 358 359 2 0 356 353 352 350 349 347 344 344 346 352 1 6 14 29 38 42 44 42 39 42 48 52 56 60 63 67 73 79 85 90 98 108 117 127 136 140 142 147 151 155 157 157 154 151 146 141 136 133 128 123 119 120 126 142 159 166 167 169 169 158
23 17 11 5 5 5 2 2 3 3 2 4 4 3 3 2 358 355 355 356 356 355 355 358 358 355 352 350 348 346 343 343 344 343 337 334 340 353 16 32 38 41 39 38 42 46 50 57 63 67 73 78 83 90 95 99 103 107 110 114 116 118 122 125 128 131 133 135 137 139 139 139 140 143 146 145 146 154 161 159 152 149 151 148 135
9 5 5 4 360 357 355 354 357 358 359 360 1 2 3 3 0 358 356 356 355 353 352 353 354 354 352 348 344 342 342 341 345 346 343 339 340 349 5 23 34 35 30 29 36 42 46 53 58 61 65 71 77 84 89 92 97 101 106 110 112 114 116 119 121 123 125 126 127 128 131 135 137 138 139 143 149 153 150 142 133 126 121 116 113
5 0 0 359 353 347 346 348 352 354 356 358 358 359 1 0 0 360 358 356 354 352 351 350 349 351 351 347 344 347 353 355 354 354 351 349 352 356 0 13 27 32 26 23 29 35 39 45 50 51 54 59 65 72 80 85 89 93 99 105 109 113 115 117 119 121 121 122 124 127 134 141 142 140 137 135 134 133 130 126 122 116 111 108 107
5 1 353 350 346 341 341 345 348 351 356 357 355 355 357 358 359 359 357 356 354 351 351 350 346 347 351 350 349 353 359 359 2 6 0 356 2 8 9 15 25 31 29 25 25 27 28 31 37 41 45 51 60 69 76 82 88 94 99 103 107 109 108 108 110 114 118 123 129 133 133 130 122 118 123 125 121 119 121 124 128 129 123 113 106
4 358 348 347 349 347 347 349 347 345 352 354 352 353 356 357 358 357 357 357 356 352 350 351 349 349 353 353 353 355 356 350 355 9 7 5 11 15 20 29 32 30 33 34 29 24 22 25 33 39 43 50 61 70 77 83 86 89 93 97 100 104 108 110 111 112 115 121 126 127 123 115 104 97 102 107 106 105 100 96 107 117 112 103 100
353 340 339 349 359 357 355 354 346 341 346 350 352 356 357 355 355 358 358 359 358 354 353 354 354 353 356 356 356 359 2 1 359 358 357 8 20 18 19 32 37 32 36 40 33 24 22 30 42 49 52 58 64 68 72 75 77 82 91 95 94 96 101 105 104 103 101 103 106 105 101 96 92 94 101 102 101 105 103 94 94 99 94 92 101
346 335 339 355 7 2 354 353 349 345 347 350 349 352 355 355 356 359 359 358 358 356 355 356 357 357 358 359 358 0 4 7 8 5 359 3 19 23 23 29 33 31 35 36 27 20 21 34 54 67 72 74 76 77 78 78 80 85 89 90 87 88 90 90 90 91 92 92 95 95 91 89 90 92 96 96 95 101 105 103 102 101 96 99 105
347 338 341 352 2 360 353 351 350 346 346 348 347 349 354 358 358 358 357 356 357 356 355 357 357 353 353 357 0 3 5 6 6 7 5 359 3 15 21 24 27 27 30 30 25 20 23 42 59 73 82 85 87 86 84 85 87 84 81 81 83 87 91 91 91 93 95 95 94 90 85 84 86 86 91 95 92 88 90 92 94 101 107 109 106
341 338 338 340 348 352 348 345 345 343 342 345 346 347 352 354 354 355 357 356 356 355 352 354 354 348 347 354 360 6 10 8 4 5 7 3 355 347 346 5 27 30 30 32 29 27 39 65 74 79 86 88 89 92 91 89 87 83 83 89 94 93 94 97 98 96 93 90 89 86 85 90 96 96 95 92 86 84 86 83 81 94 102 99 99
341 338 335 332 338 345 343 341 342 341 342 345 345 345 347 347 348 352 354 353 355 354 350 349 352 348 347 352 1 9 13 9 4 4 8 9 6 359 343 329 350 9 16 29 35 39 53 70 74 80 88 85 81 86 90 88 88 89 87 83 83 87 92 94 93 92 89 89 99 104 98 91 92 95 91 83 82 88 90 83 80 89 93 87 90
341 338 333 329 331 336 338 340 341 341 342 342 341 339 340 341 343 349 351 350 353 354 349 346 350 352 350 352 0 9 13 9 6 7 6 6 11 13 10 4 3 16 23 31 40 56 71 75 70 72 81 84 85 89 92 90 89 92 95 99 101 101 98 91 86 85 79 72 83 89 84 78 86 93 86 83 88 85 76 74 78 80 82 95 104
335 334 333 332 330 329 332 336 338 339 338 337 336 335 339 342 344 348 351 350 350 351 350 347 348 353 354 354 357 4 8 6 7 10 8 7 9 14 20 29 43 51 38 29 36 58 73 72 68 72 79 83 86 95 112 121 116 100 86 104 115 114 117 111 101 102 110 84 59 50 46 61 89 91 70 66 73 72 67 68 66 65 75 103 138
330 330 332 333 330 329 331 333 334 336 337 337 337 337 340 343 345 348 351 351 348 349 351 349 348 350 351 351 355 359 0 1 5 8 9 10 10 10 15 24 29 29 25 25 39 69 81 63 50 55 64 67 66 66 104 132 138 133 122 116 119 137 155 157 155 176 180 153 106 54 19 50 72 73 79 77 62 51 67 72 56 52 68 74 84
326 328 330 330 328 328 328 330 334 336 336 337 337 336 337 340 343 345 346 347 348 350 350 348 348 350 348 347 352 356 355 357 2 3 4 8 10 7 5 6 8 13 18 14 20 70 90 72 58 54 48 46 49 48 52 83 129 133 129 137 157 175 191 192 172 176 181 164 130 116 133 112 347 323 171 119 68 27 43 71 57 61 79 71 68
325 329 328 327 328 327 326 328 332 334 334 336 337 336 334 335 338 340 343 345 347 350 350 348 348 348 345 344 346 347 349 353 357 356 357 2 2 359 1 5 5 2 0 9 23 33 29 38 46 51 52 49 44 49 56 48 30 41 69 193 181 180 192 182 106 116 177 182 163 145 146 135 32 18 94 145 73 45 62 35 28 59 76 83 107
328 334 332 329 329 330 329 331 332 332 333 336 336 334 333 333 334 335 339 342 344 345 345 347 347 345 343 342 340 337 338 344 347 348 351 351 349 350 0 5 2 353 350 4 13 6 344 16 49 6 2 26 8 3 29 34 16 10 253 238 241 234 216 186 136 132 187 189 171 156 160 172 294 305 256 252 246 176 147 285 316 65 97 94 147
332 336 334 332 332 333 334 336 335 333 334 335 334 332 332 333 332 333 335 337 340 341 341 343 344 343 341 341 338 334 332 333 338 344 348 347 347 344 334 342 357 9 4 354 352 351 354 7 11 347 339 338 317 320 335 353 340 268 243 252 264 260 235 196 162 160 170 140 102 70 358 301 284 273 284 302 288 227 184 192 236 193 176 191 203
333 333 334 337 337 335 336 338 337 335 335 335 334 333 333 331 332 334 334 334 335 337 338 339 340 340 341 342 339 337 334 332 334 342 348 349 352 349 327 329 354 14 17 342 334 343 349 347 343 345 349 326 301 306 321 288 265 247 244 255 262 247 216 192 168 154 127 108 108 100 306 298 289 280 291 308 302 266 185 180 190 190 182 177 170
320 328 334 337 337 337 337 337 337 338 339 338 337 335 335 334 334 334 334 334 335 335 334 334 334 334 337 340 341 341 341 337 334 338 343 346 349 349 338 331 345 355 350 332 330 338 335 325 323 331 330 310 304 307 274 256 256 248 241 244 244 223 200 192 185 170 107 111 125 121 335 310 308 313 308 236 233 282 228 198 191 190 194 189 173
Height
1525 1524 1521 1518 1516 1514 1513 1512 1511 1510 1509 1508 1507 1506 1505 1504 1503 1502 1501 1500 1499 1497 1496 1495 1495 1495 1495 1494 1493 1493 1493 1494 1493 1492 1491 1492 1493 1493 1493 1495 1496 1497 1498 1499 1500 1501 1503 1504 1505 1507 1508 1510 1512 1513 1514 1515 1516 1517 1518 1519 1520 1523 1526 1527 1528 1531 1533 1534 1535 1537 1538 1540 1541 1543 1544 1544 1544 1547 1549 1549 1549 1550 1552 1552 1554
1526 1525 1522 1519 1516 1513 1512 1511 1510 1509 1508 1507 1506 1504 1503 1502 1501 1500 1499 1498 1497 1496 1494 1492 1492 1493 1494 1494 1493 1493 1492 1492 1491 1490 1489 1490 1492 1492 1492 1493 1494 1495 1496 1497 1498 1499 1500 1502 1503 1504 1506 1507 1509 1511 1513 1514 1514 1515 1516 1517 1517 1519 1522 1525 1526 1529 1531 1532 1534 1535 1536 1538 1540 1542 1543 1542 1543 1545 1548 1548 1548 1550 1551 1551 1553
1526 1525 1522 1520 1516 1513 1512 1510 1509 1507 1506 1505 1505 1503 1502 1500 1499 1498 1497 1497 1496 1494 1492 1490 1489 1490 1490 1492 1492 1492 1491 1490 1489 1489 1488 1489 1491 1491 1490 1490 1491 1493 1494 1495 1496 1497 1497 1499 1501 1502 1503 1505 1506 1508 1509 1510 1511 1512 1514 1515 1516 1517 1520 1523 1525 1527 1530 1531 1532 1533 1534 1536 1538 1540 1542 1542 1542 1544 1546 1547 1548 1549 1550 1551 1552
1526 1525 1522 1520 1517 1514 1512 1510 1508 1507 1505 1505 1504 1502 1501 1499 1498 1497 1496 1496 1495 1492 1490 1488 1487 1487 1487 1488 1489 1490 1489 1488 1488 1488 1488 1488 1489 1488 1488 1488 1489 1491 1492 1493 1494 1495 1496 1497 1499 1500 1501 1502 1503 1505 1506 1507 1508 1510 1512 1514 1516 1516 1518 1522 1524 1526 1528 1530 1530 1531 1532 1534 1536 1538 1540 1541 1541 1543 1545 1546 1547 1548 1549 1551 1552
1527 1525 1523 1521 1518 1516 1513 1511 1509 1507 1505 1504 1503 1502 1500 1499 1497 1496 1495 1494 1493 1491 1488 1486 1485 1484 1484 1485 1486 1487 1487 1486 1487 1487 1487 1487 1487 1487 1485 1486 1487 1489 1490 1491 1492 1493 1494 1495 1497 1498 1499 1500 1500 1501 1503 1504 1506 1507 1509 1512 1514 1515 1517 1520 1522 1525 1528 1529 1529 1529 1530 1532 1535 1536 1538 1540 1540 1542 1544 1545 1546 1547 1549 1550 1551
1527 1525 1524 1522 1520 1517 1515 1512 1510 1508 1506 1504 1502 1501 1499 1498 1496 1495 1494 1492 1491 1489 1487 1484 1483 1483 1483 1483 1484 1484 1485 1485 1486 1486 1487 1487 1487 1486 1484 1483 1484 1486 1488 1489 1490 1491 1492 1493 1495 1496 1497 1498 1498 1498 1500 1501 1503 1505 1507 1509 1512 1514 1516 1519 1522 1524 1527 1528 1528 1528 1529 1531 1533 1534 1536 1538 1539 1540 1542 1543 1545 1546 1547 1548 1550
1528 1526 1525 1522 1520 1519 1516 1514 1512 1509 1507 1504 1502 1500 1499 1498 1496 1494 1493 1492 1490 1488 1486 1483 1482 1482 1482 1482 1482 1483 1483 1484 1485 1486 1487 1488 1488 1486 1483 1481 1482 1483 1485 1487 1488 1489 1490 1491 1493 1494 1495 1496 1496 1497 1498 1499 1501 1503 1505 1507 1509 1512 1515 1519 1522 1524 1525 1526 1526 1527 1528 1529 1531 1533 1534 1536 1537 1538 1539 1541 1542 1544 1545 1546 1548
1529 1527 1525 1523 1521 1520 1517 1515 1513 1511 1508 1505 1503 1500 1499 1497 1496 1494 1493 1491 1490 1488 1486 1483 1481 1481 1482 1482 1481 1482 1483 1484 1485 1485 1486 1487 1488 1487 1483 1481 1481 1482 1483 1485 1486 1487 1489 1490 1491 1491 1493 1494 1495 1496 1497 1498 1500 1502 1504 1506 1508 1510 1512 1516 1519 1520 1522 1523 1523 1524 1526 1527 1529 1531 1532 1534 1535 1536 1537 1539 1540 1541 1543 1544 1545
1530 1528 1526 1524 1522 1520 1518 1516 1514 1512 1509 1506 1504 1501 1499 1497 1496 1494 1493 1491 1490 1488 1486 1485 1483 1482 1483 1482 1482 1482 1483 1484 1485 1486 1486 1486 1486 1487 1484 1481 1481 1481 1482 1483 1484 1486 1487 1488 1488 1489 1490 1491 1493 1495 1496 1497 1498 1500 1502 1504 1506 1508 1510 1512 1515 1517 1518 1519 1520 1522 1524 1525 1526 1528 1529 1531 1532 1534 1535 1537 1538 1539 1541 1542 1543
1530 1529 1527 1525 1523 1521 1519 1518 1516 1514 1511 1508 1506 1502 1499 1497 1496 1494 1493 1491 1490 1488 1487 1486 1484 1483 1484 1483 1483 1483 1483 1485 1485 1486 1487 1487 1486 1485 1484 1482 1480 1480 1481 1481 1482 1484 1484 1485 1486 1487 1488 1490 1491 1493 1495 1496 1497 1498 1500 1502 1504 1506 1508 1509 1512 1514 1515 1517 1518 1519 1521 1522 1524 1525 1527 1529 1530 1532 1534 1535 1536 1537 1539 1540 1541
1531 1530 1528 1526 1524 1522 1521 1519 1517 1516 1513 1511 1508 1504 1501 1498 1496 1495 1493 1491 1490 1488 1487 1487 1485 1484 1484 1484 1484 1484 1484 1485 1485 1486 1487 1486 1485 1484 1483 1482 1480 1479 1479 1480 1481 1481 1482 1483 1483 1484 1486 1488 1490 1491 1493 1494 1495 1496 1498 1499 1501 1503 1505 1507 1509 1511 1512 1514 1515 1517 1518 1520 1521 1523 1525 1527 1528 1530 1532 1533 1534 1535 1536 1537 1538
1533 1531 1530 1528 1526 1524 1522 1521 1519 1517 1515 1513 1510 1506 1503 1500 1497 1495 1493 1491 1490 1488 1487 1487 1486 1485 1484 1484 1484 1484 1484 1485 1485 1485 1485 1485 1484 1484 1483 1482 1480 1479 1479 1479 1479 1480 1480 1481 1481 1482 1484 1486 1487 1489 1490 1491 1492 1494 1496 1497 1498 1500 1502 1504 1506 1508 1509 1511 1512 1515 1516 1517 1519 1520 1522 1525 1527 1529 1530 1531 1532 1533 1534 1535 1536
1535 1533 1531 1530 1527 1525 1524 1522 1520 1518 1516 1514 1511 1508 1505 1502 1499 1496 1494 1492 1491 1489 1487 1486 1486 1485 1484 1483 1483 1483 1483 1484 1484 1484 1484 1483 1483 1483 1483 1482 1481 1480 1479 1478 1479 1479 1478 1479 1479 1480 1482 1483 1485 1486 1487 1488 1490 1491 1493 1494 1495 1497 1499 1501 1503 1505 1507 1509 1511 1513 1515 1516 1517 1519 1520 1523 1525 1526 1528 1529 1530 1531 1532 1533 1534
1536 1535 1533 1531 1530 1528 1526 1524 1522 1520 1518 1515 1513 1510 1507 1504 1501 1498 1496 1494 1492 1490 1488 1487 1486 1485 1484 1483 1483 1482 1482 1483 1482 1482 1482 1482 1482 1482 1482 1481 1480 1479 1478 1478 1478 1478 1477 1477 1478 1479 1480 1481 1482 1484 1485 1486 1487 1489 1490 1492 1493 1494 1496 1498 1500 1502 1504 1506 1508 1510 1512 1513 1515 1517 1518 1520 1522 1523 1525 1527 1528 1530 1531 1532 1532
1539 1537 1535 1534 1532 1530 1528 1526 1524 1522 1519 1517 1514 1511 1509 1506 1504 1501 1499 1497 1494 1491 1490 1488 1487 1485 1484 1484 1483 1482 1482 1481 1481 1481 1481 1481 1481 1480 1480 1480 1479 1479 1478 1477 1477 1477 1476 1476 1477 1479 1479 1479 1480 1482 1483 1484 1485 1486 1488 1490 1491 1491 1493 1495 1497 1498 1501 1503 1504 1506 1509 1510 1511 1513 1516 1518 1520 1521 1522 1524 1526 1528 1529 1530 1530
1540 1539 1537 1536 1534 1533 1531 1529 1526 1524 1521 1518 1515 1513 1510 1508 1506 1504 1502 1500 1497 1494 1492 1490 1488 1487 1485 1484 1483 1482 1481 1480 1479 1479 1479 1479 1479 1478 1478 1478 1478 1478 1478 1478 1477 1477 1475 1475 1476 1478 1478 1478 1478 1480 1482 1482 1483 1484 1486 1487 1488 1488 1490 1492 1495 1496 1499 1500 1501 1504 1507 1508 1509 1511 1513 1516 1517 1518 1519 1521 1523 1526 1527 1527 1528
1542 1541 1539 1538 1536 1535 1533 1531 1528 1526 1523 1520 1517 1514 1512 1510 1508 1506 1504 1502 1500 1497 1495 1493 1491 1488 1487 1485 1483 1482 1481 1479 1478 1477 1477 1476 1476 1476 1476 1476 1476 1476 1476 1477 1477 1477 1476 1475 1475 1476 1476 1476 1477 1479 1481 1482 1482 1483 1484 1485 1485 1486 1488 1490 1492 1494 1496 1498 1499 1502 1504 1506 1507 1509 1511 1513 1514 1516 1517 1518 1520 1522 1523 1524 1526
1544 1543 1541 1540 1538 1536 1534 1532 1530 1528 1525 1522 1519 1517 1514 1512 1509 1507 1505 1503 1502 1500 1498 1496 1494 1491 1489 1487 1485 1483 1481 1479 1477 1476 1475 1474 1473 1473 1474 1473 1474 1474 1474 1475 1476 1476 1475 1475 1474 1474 1475 1476 1477 1479 1480 1481 1481 1482 1483 1483 1483 1484 1486 1488 1490 1492 1494 1495 1497 1499 1501 1502 1504 1506 1508 1509 1511 1513 1514 1515 1517 1520 1521 1522 1524
1545 1544 1543 1541 1540 1538 1536 1534 1532 1530 1528 1525 1522 1520 1517 1514 1512 1509 1507 1505 1503 1501 1500 1498 1496 1493 1491 1488 1486 1484 1482 1479 1477 1475 1473 1472 1471 1471 1471 1471 1471 1472 1472 1473 1473 1473 1472 1473 1473 1474 1475 1475 1476 1477 1479 1480 1480 1481 1481 1481 1481 1482 1484 1486 1488 1490 1491 1493 1494 1496 1497 1499 1500 1502 1504 1506 1508 1510 1511 1512 1515 1517 1518 1519 1520
1547 1546 1544 1543 1541 1539 1537 1535 1533 1531 1529 1527 1525 1523 1520 1518 1515 1512 1509 1507 1504 1502 1500 1499 1497 1495 1492 1490 1487 1485 1482 1480 1477 1475 1473 1471 1470 1469 1469 1469 1469 1470 1471 1470 1470 1469 1470 1471 1472 1472 1474 1475 1475 1476 1477 1478 1479 1479 1480 1480 1480 1481 1483 1484 1486 1488 1489 1490 1492 1493 1495 1496 1498 1500 1501 1503 1505 1507 1508 1510 1512 1514 1515 1515 1516
1548 1547 1546 1544 1543 1541 1539 1537 1535 1533 1531 1529 1527 1525 1523 1520 1517 1515 1513 1510 1507 1504 1501 1499 1497 1496 1494 1491 1489 1486 1483 1481 1478 1476 1473 1471 1469 1468 1468 1467 1468 1468 1469 1468 1467 1467 1468 1469 1470 1471 1472 1473 1474 1475 1475 1476 1477 1477 1478 1479 1479 1480 1482 1483 1484 1486 1488 1489 1490 1492 1493 1495 1496 1498 1499 1501 1502 1504 1506 1507 1509 1512 1513 1513 1513
1550 1548 1547 1546 1544 1542 1540 1538 1536 1535 1533 1531 1529 1527 1524 1522 1520 1517 1515 1513 1510 1507 1504 1501 1498 1496 1494 1493 1490 1488 1485 1483 1480 1477 1475 1472 1470 1468 1467 1467 1467 1467 1467 1467 1467 1467 1468 1468 1468 1469 1470 1471 1472 1473 1474 1474 1475 1475 1476 1477 1478 1480 1481 1483 1484 1486 1487 1488 1490 1491 1492 1494 1495 1497 1498 1500 1501 1503 1504 1505 1507 1509 1510 1511 1513
1551 1549 1548 1547 1545 1543 1542 1540 1538 1537 1535 1533 1531 1528 1526 1524 1521 1519 1517 1514 1512 1509 1506 1504 1501 1498 1496 1494 1492 1490 1487 1485 1482 1479 1476 1474 1471 1469 1468 1467 1466 1466 1466 1466 1466 1466 1466 1466 1467 1467 1468 1468 1469 1470 1471 1472 1473 1474 1475 1476 1478 1480 1482 1483 1484 1486 1488 1489 1490 1491 1492 1494 1495 1496 1497 1499 1500 1502 1503 1504 1505 1506 1507 1509 1511
1552 1550 1549 1548 1546 1545 1543 1541 1540 1538 1536 1534 1532 1530 1528 1526 1523 1521 1519 1516 1514 1512 1509 1507 1504 1501 1498 1496 1494 1492 1489 1487 1484 1481 1479 1476 1473 1471 1469 1468 1467 1467 1466 1466 1465 1464 1464 1464 1464 1465 1466 1467 1467 1468 1469 1470 1471 1472 1474 1476 1478 1481 1483 1484 1486 1487 1488 1489 1489 1490 1491 1492 1494 1495 1496 1498 1500 1501 1502 1503 1504 1505 1506 1508 1510
1553 1551 1550 1549 1547 1546 1544 1543 1541 1540 1538 1536 1534 1532 1530 1528 1526 1524 1521 1519 1517 1514 1512 1510 1507 1504 1502 1499 1496 1494 1492 1490 1487 1485 1482 1480 1477 1474 1472 1471 1469 1469 1468 1467 1466 1465 1465 1463 1462 1463 1464 1465 1467 1468 1469 1470 1471 1471 1473 1475 1476 1477 1480 1482 1483 1485 1485 1486 1487 1488 1489 1491 1492 1494 1496 1498 1499 1500 1501 1502 1503 1504 1506 1507 1509
1553 1552 1551 1550 1548 1547 1545 1544 1543 1541 1539 1538 1536 1535 1533 1530 1528 1526 1524 1522 1519 1517 1515 1512 1510 1508 1505 1502 1500 1497 1495 1493 1491 1488 1486 1484 1481 1479 1476 1474 1473 1472 1471 1470 1468 1467 1467 1465 1463 1462 1463 1465 1466 1467 1468 1470 1471 1472 1474 1475 1475 1475 1476 1478 1480 1482 1483 1485 1486 1488 1489 1490 1492 1494 1495 1497 1498 1499 1500 1501 1502 1504 1506 1507 1509
1554 1553 1552 1551 1549 1548 1546 1545 1544 1542 1541 1539 1538 1537 1535 1533 1530 1528 1526 1524 1522 1520 1517 1515 1512 1510 1508 1505 1503 1500 1498 1496 1494 1491 1489 1487 1486 1484 1481 1478 1477 1476 1475 1474 1472 1471 1471 1469 1466 1464 1464 1465 1467 1467 1467 1469 1471 1472 1474 1475 1476 1476 1477 1478 1479 1481 1483 1484 1486 1487 1489 1490 1491 1493 1494 1496 1497 1499 1500 1501 1503 1504 1506 1507 1509
1555 1554 1553 1552 1550 1549 1548 1546 1545 1543 1542 1540 1539 1538 1536 1534 1532 1529 1527 1525 1523 1522 1520 1517 1515 1513 1510 1508 1506 1503 1501 1499 1497 1494 1492 1490 1489 1487 1485 1483 1481 1480 1479 1478 1477 1476 1475 1472 1469 1466 1466 1468 1469 1469 1469 1470 1470 1471 1473 1475 1475 1476 1477 1479 1481 1483 1484 1485 1487 1488 1490 1491 1493 1494 1495 1496 1498 1499 1500 1502 1504 1505 1506 1508 1509
1555 1555 1554 1553 1551 1550 1549 1547 1546 1545 1543 1541 1539 1537 1536 1535 1533 1531 1528 1527 1525 1523 1521 1519 1517 1515 1513 1511 1508 1506 1504 1502 1500 1498 1496 1494 1492 1490 1488 1486 1485 1483 1482 1482 1481 1480 1478 1475 1472 1470 1470 1472 1472 1472 1472 1472 1472 1473 1474 1475 1476 1476 1477 1478 1480 1483 1485 1487 1488 1489 1491 1493 1494 1495 1496 1497 1499 1500 1501 1503 1504 1506 1507 1508 1509
1556 1555 1554 1553 1552 1551 1550 1548 1547 1546 1544 1542 1540 1537 1536 1535 1533 1532 1530 1528 1526 1524 1522 1520 1518 1517 1515 1513 1510 1508 1506 1504 1502 1501 1499 1497 1495 1493 1491 1490 1488 1486 1485 1484 1483 1481 1480 1478 1476 1474 1474 1475 1475 1475 1475 1475 1476 1476 1477 1477 1478 1479 1479 1480 1482 1485 1487 1488 1489 1491 1492 1494 1495 1497 1498 1498 1499 1501 1502 1503 1505 1506 1508 1509 1510
1557 1556 1555 1554 1553 1552 1551 1549 1548 1547 1545 1544 1542 1540 1538 1536 1534 1532 1531 1529 1527 1525 1523 1521 1520 1518 1516 1514 1512 1510 1508 1506 1504 1503 1501 1499 1497 1496 1494 1493 1491 1489 1487 1486 1484 1482 1481 1480 1479 1478 1478 1477 1477 1478 1478 1478 1478 1479 1479 1479 1480 1481 1482 1483 1485 1487 1488 1490 1491 1492 1493 1495 1497 1498 1499 1499 1500 1502 1503 1504 1506 1507 1508 1509 1510
1558 1557 1556 1555 1554 1553 1552 1550 1549 1548 1546 1545 1543 1542 1540 1538 1535 1533 1531 1529 1528 1526 1524 1522 1520 1518 1517 1515 1513 1511 1509 1507 1505 1503 1502 1501 1499 1498 1496 1495 1493 1491 1490 1488 1486 1484 1483 1482 1482 1481 1481 1481 1480 1480 1480 1480 1480 1481 1481 1481 1482 1482 1483 1485 1486 1488 1489 1491 1492 1494 1495 1497 1498 1499 1500 1500 1501 1503 1504 1506 1507 1508 1508 1509 1510
1559 1558 1557 1555 1554 1553 1552 1551 1550 1548 1547 1545 1544 1543 1541 1539 1537 1535 1533 1531 1529 1527 1525 1523 1521 1518 1516 1514 1513 1511 1509 1507 1506 1504 1503 1501 1500 1499 1498 1496 1494 1493 1492 1490 1489 1487 1486 1486 1485 1485 1484 1484 1483 1483 1483 1483 1483 1483 1483 1484 1484 1485 1486 1487 1488 1489 1490 1492 1494 1495 1496 1497 1498 1499 1500 1501 1502 1504 1505 1506 1507 1508 1509 1510 1511
1558 1557 1556 1555 1555 1553 1552 1551 1550 1549 1547 1546 1545 1543 1542 1540 1539 1537 1535 1533 1531 1529 1526 1524 1522 1519 1517 1514 1512 1510 1509 1507 1506 1505 1503 1502 1500 1499 1499 1497 1496 1495 1494 1493 1491 1490 1489 1489 1488 1488 1488 1487 1487 1486 1486 1485 1485 1485 1486 1486 1487 1488 1488 1489 1490 1491 1492 1493 1495 1496 1497 1498 1499 1500 1501 1502 1503 1504 1506 1507 1508 1509 1510 1511 1512
1558 1557 1556 1555 1554 1554 1553 1552 1550 1549 1548 1546 1545 1544 1542 1541 1539 1538 1536 1534 1533 1531 1529 1526 1524 1521 1518 1516 1513 1510 1508 1507 1506 1505 1504 1502 1501 1500 1499 1498 1497 1496 1496 1495 1494 1493 1492 1491 1491 1490 1490 1490 1490 1489 1489 1488 1488 1488 1488 1489 1490 1490 1491 1491 1492 1493 1494 1495 1496 1497 1498 1499 1500 1501 1502 1503 1504 1506 1507 1508 1509 1510 1511 1512 1513
1559 1558 1557 1555 1554 1554 1553 1551 1550 1549 1548 1547 1545 1544 1543 1541 1540 1538 1536 1535 1533 1532 1530 1528 1526 1523 1520 1517 1514 1511 1508 1507 1506 1505 1504 1503 1502 1501 1500 1499 1499 1498 1497 1497 1496 1495 1495 1494 1493 1493 1493 1492 1492 1492 1492 1491 1491 1491 1491 1492 1492 1493 1493 1494 1494 1495 1496 1497 1498 1499 1500 1501 1501 1502 1503 1504 1505 1507 1508 1508 1509 1510 1511 1512 1513
1559 1558 1557 1555 1554 1553 1552 1551 1550 1549 1548 1547 1546 1544 1543 1542 1540 1538 1537 1536 1534 1532 1530 1528 1526 1524 1521 1518 1515 1511 1509 1508 1507 1505 1504 1503 1503 1502 1501 1501 1500 1500 1499 1499 1498 1498 1497 1496 1496 1495 1495 1495 1495 1494 1494 1494 1494 1494 1494 1494 1494 1495 1495 1496 1497 1497 1498 1499 1500 1500 1501 1502 1503 1504 1505 1506 1507 1508 1509 1510 1510 1511 1511 1512 1513
1559 1558 1556 1555 1554 1553 1552 1552 1550 1549 1548 1547 1546 1544 1543 1542 1540 1539 1537 1536 1534 1533 1531 1529 1526 1524 1522 1520 1516 1513 1510 1508 1507 1506 1505 1504 1504 1503 1503 1502 1502 1501 1501 1501 1500 1500 1500 1499 1498 1498 1497 1497 1497 1497 1497 1498 1497 1497 1497 1497 1497 1498 1498 1498 1499 1500 1501 1501 1502 1503 1504 1504 1505 1506 1507 1507 1508 1509 1510 1510 1511 1512 1513 1513 1514
1559 1557 1556 1555 1554 1553 1553 1552 1550 1549 1548 1547 1546 1544 1543 1542 1540 1539 1538 1536 1535 1533 1532 1530 1528 1526 1523 1521 1518 1515 1512 1510 1508 1507 1506 1505 1505 1505 1504 1504 1503 1503 1502 1502 1502 1502 1502 1501 1500 1500 1500 1500 1500 1500 1500 1501 1500 1500 1500 1500 1500 1500 1501 1502 1502 1503 1503 1504 1504 1505 1505 1506 1506 1507 1508 1508 1509 1509 1510 1511 1512 1513 1514 1514 1514
1559 1557 1556 1555 1554 1554 1553 1552 1550 1549 1548 1547 1546 1544 1543 1542 1541 1539 1538 1537 1535 1534 1532 1531 1529 1526 1524 1522 1519 1516 1514 1513 1511 1509 1508 1507 1506 1506 1505 1504 1504 1504 1504 1503 1503 1504 1503 1502 1502 1502 1502 1502 1502 1503 1503 1503 1503 1503 1503 1503 1504 1504 1504 1504 1504 1504 1505 1505 1505 1506 1507 1507 1508 1508 1509 1509 1510 1511 1512 1512 1513 1513 1514 1514 1515
1558 1557 1557 1555 1554 1553 1553 1552 1551 1549 1548 1547 1546 1544 1543 1542 1541 1539 1538 1537 1536 1534 1533 1531 1529 1527 1525 1523 1521 1518 1517 1515 1514 1512 1510 1509 1507 1507 1506 1505 1505 1504 1504 1504 1505 1505 1505 1504 1504 1504 1504 1504 1504 1504 1504 1505 1505 1505 1505 1506 1506 1505 1505 1505 1506 1506 1506 1506 1507 1507 1508 1508 1509 1509 1510 1511 1511 1512 1513 1513 1514 1514 1514 1514 1515
1558 1557 1556 1555 1554 1553 1552 1551 1550 1549 1548 1547 1546 1544 1543 1542 1541 1539 1538 1537 1536 1535 1533 1531 1530 1528 1526 1524 1522 1520 1519 1518 1516 1514 1512 1511 1509 1508 1507 1506 1506 1505 1505 1505 1505 1506 1506 1506 1505 1505 1505 1505 1505 1506 1506 1506 1507 1507 1507 1507 1507 1507 1507 1507 1507 1507 1508 1508 1508 1508 1509 1509 1510 1511 1511 1512 1513 1513 1513 1513 1514 1514 1514 1514 1515
1557 1557 1556 1555 1554 1553 1552 1551 1550 1549 1548 1547 1545 1544 1543 1542 1541 1539 1538 1537 1536 1535 1533 1532 1530 1529 1527 1525 1523 1522 1521 1520 1518 1516 1514 1513 1511 1509 1507 1506 1506 1506 1506 1506 1506 1506 1506 1506 1506 1506 1506 1507 1507 1507 1508 1508 1508 1509 1509 1509 1509 1509 1509 1509 1509 1509 1510 1509 1509 1509 1510 1511 1511 1512 1512 1512 1513 1513 1513 1513 1514 1514 1514 1515 1515
1557 1557 1556 1555 1554 1553 1552 1551 1549 1548 1547 1546 1545 1544 1543 1542 1541 1539 1538 1537 1536 1534 1533 1532 1530 1529 1528 1526 1525 1523 1522 1521 1520 1518 1517 1515 1513 1511 1510 1508 1508 1508 1507 1507 1507 1507 1507 1507 1507 1507 1507 1507 1508 1508 1508 1508 1509 1509 1510 1510 1510 1510 1510 1511 1511 1511 1511 1511 1511 1511 1511 1512 1512 1513 1513 1513 1513 1513 1513 1513 1513 1513 1514 1514 1515
1557 1556 1555 1555 1553 1552 1551 1550 1549 1548 1547 1546 1545 1544 1543 1542 1541 1539 1538 1537 1536 1534 1533 1532 1530 1529 1529 1527 1526 1525 1524 1522 1521 1520 1518 1517 1515 1514 1512 1511 1510 1510 1509 1509 1508 1508 1508 1508 1508 1508 1508 1508 1508 1508 1508 1508 1508 1509 1510 1511 1511 1511 1511 1511 1511 1511 1511 1511 1511 1512 1513 1513 1513 1513 1513 1513 1513 1514 1514 1513 1514 1514 1514 1515 1515
1557 1556 1555 1554 1553 1552 1551 1550 1549 1548 1547 1546 1545 1544 1542 1541 1540 1539 1538 1537 1536 1534 1533 1532 1531 1529 1529 1528 1526 1525 1524 1523 1522 1521 1519 1518 1517 1516 1514 1513 1512 1511 1510 1510 1509 1509 1509 1509 1509 1509 1509 1509 1509 1508 1509 1509 1509 1509 1509 1510 1511 1510 1510 1510 1510 1510 1511 1511 1511 1511 1513 1513 1513 1512 1512 1513 1513 1514 1513 1513 1514 1514 1515 1515 1515
1556 1555 1555 1554 1553 1552 1551 1550 1549 1548 1546 1545 1544 1543 1542 1541 1540 1539 1538 1537 1535 1534 1534 1532 1531 1530 1529 1528 1527 1526 1525 1523 1522 1521 1520 1519 1518 1517 1516 1514 1513 1512 1511 1511 1510 1510 1510 1510 1509 1509 1509 1509 1509 1509 1509 1510 1510 1510 1510 1510 1510 1510 1510 1510 1510 1510 1511 1511 1511 1511 1512 1513 1513 1512 1512 1512 1513 1513 1513 1514 1514 1514 1515 1516 1516
1556 1555 1554 1553 1552 1551 1550 1549 1549 1547 1546 1545 1544 1543 1542 1541 1540 1539 1538 1537 1535 1535 1534 1533 1532 1530 1529 1528 1527 1526 1525 1524 1523 1522 1521 1520 1519 1518 1517 1516 1515 1514 1512 1511 1511 1511 1510 1510 1510 1510 1510 1510 1510 1510 1510 1510 1511 1511 1511 1510 1510 1510 1510 1510 1510 1511 1511 1511 1511 1512 1512 1512 1512 1512 1512 1512 1512 1512 1513 1514 1515 1515 1516 1516 1517
1555 1554 1553 1553 1552 1551 1550 1549 1548 1547 1546 1545 1544 1543 1541 1541 1539 1538 1537 1536 1535 1535 1534 1533 1532 1531 1529 1528 1527 1526 1525 1524 1523 1522 1521 1520 1519 1519 1518 1517 1516 1515 1514 1513 1512 1512 1511 1511 1510 1510 1510 1510 1510 1510 1510 1511 1511 1511 1510 1510 1510 1510 1510 1510 1510 1511 1511 1511 1512 1513 1513 1513 1512 1512 1512 1512 1512 1512 1513 1514 1515 1516 1516 1517 1516
1554 1554 1553 1552 1552 1551 1550 1549 1548 1547 1546 1545 1544 1542 1541 1540 1539 1538 1537 1536 1535 1534 1533 1532 1532 1531 1530 1529 1527 1526 1525 1524 1523 1522 1522 1521 1520 1519 1518 1517 1516 1516 1516 1515 1515 1514 1513 1512 1512 1511 1511 1511 1511 1511 1511 1511 1511 1510 1510 1510 1510 1510 1510 1510 1511 1511 1511 1511 1512 1513 1513 1513 1512 1512 1512 1512 1512 1512 1513 1514 1515 1516 1516 1516 1516
1554 1553 1553 1552 1551 1550 1550 1549 1548 1547 1546 1545 1543 1542 1541 1540 1539 1538 1537 1536 1535 1534 1533 1532 1531 1531 1530 1529 1528 1526 1525 1524 1524 1523 1522 1521 1520 1520 1519 1518 1517 1517 1517 1517 1516 1516 1515 1515 1514 1513 1513 1513 1512 1511 1511 1511 1510 1510 1510 1510 1510 1510 1510 1511 1511 1511 1512 1512 1512 1513 1513 1513 1512 1511 1511 1512 1512 1513 1513 1514 1514 1515 1516 1516 1516